| time (UTC) | temp F | wind direction | speed knots | gust knots | rain 1hr in | rain 24hr in | rain mn in | humidity % | barometer mb |
| 20260510142331 | 51 | 261 | 7.0 | 0.0 | 0.00 | 0.00 | 0.00 | 44 | 1013.8 |
| 20260510141330 | 50 | 332 | 4.3 | 0.0 | 0.00 | 0.00 | 0.00 | 44 | 1013.9 |
| 20260510140830 | 50 | 221 | 10.4 | 0.0 | 0.00 | 0.00 | 0.00 | 45 | 1013.7 |
| 20260510134829 | 50 | 285 | 9.6 | 0.0 | 0.00 | 0.00 | 0.00 | 51 | 1013.5 |
| 20260510133328 | 49 | 273 | 6.1 | 0.0 | 0.00 | 0.00 | 0.00 | 54 | 1013.4 |
| 20260510132828 | 48 | 300 | 7.0 | 0.0 | 0.00 | 0.00 | 0.00 | 55 | 1013.4 |
| 20260510132327 | 48 | 334 | 7.0 | 0.0 | 0.00 | 0.00 | 0.00 | 56 | 1013.4 |
| 20260510131327 | 48 | 281 | 7.8 | 0.0 | 0.00 | 0.00 | 0.00 | 56 | 1013.4 |
| 20260510130826 | 48 | 269 | 6.1 | 0.0 | 0.00 | 0.00 | 0.00 | 57 | 1013.3 |
| 20260510130326 | 48 | 232 | 3.5 | 0.0 | 0.00 | 0.00 | 0.00 | 59 | 1013.3 |
| 20260510124825 | 47 | 234 | 3.5 | 0.0 | 0.00 | 0.00 | 0.00 | 61 | 1013.0 |
| 20260510124325 | 47 | 321 | 8.7 | 0.0 | 0.00 | 0.00 | 0.00 | 62 | 1013.0 |
| 20260510123825 | 46 | 297 | 8.7 | 0.0 | 0.00 | 0.00 | 0.00 | 61 | 1013.0 |
| 20260510123325 | 46 | 282 | 8.7 | 0.0 | 0.00 | 0.00 | 0.00 | 60 | 1012.9 |
| 20260510122824 | 46 | 281 | 7.0 | 0.0 | 0.00 | 0.00 | 0.00 | 60 | 1012.9 |
| 20260510122324 | 46 | 251 | 4.3 | 0.0 | 0.00 | 0.00 | 0.00 | 60 | 1012.8 |
| 20260510121824 | 46 | 258 | 5.2 | 0.0 | 0.00 | 0.00 | 0.00 | 60 | 1012.7 |
| 20260510120823 | 46 | 288 | 3.5 | 0.0 | 0.00 | 0.00 | 0.00 | 62 | 1012.4 |
| 20260510120323 | 45 | 360 | 1.7 | 0.0 | 0.00 | 0.00 | 0.00 | 63 | 1012.3 |
| 20260510115822 | 45 | 298 | 2.6 | 0.0 | 0.00 | 0.00 | 0.00 | 63 | 1012.3 |
| 20260510115322 | 45 | 329 | 4.3 | 0.0 | 0.00 | 0.00 | 0.00 | 64 | 1012.3 |
| 20260510114822 | 45 | 269 | 7.0 | 0.0 | 0.00 | 0.00 | 0.00 | 63 | 1012.2 |
| 20260510114322 | 45 | 283 | 6.1 | 0.0 | 0.00 | 0.00 | 0.00 | 64 | 1012.1 |
| 20260510113822 | 44 | 265 | 6.1 | 0.0 | 0.00 | 0.00 | 0.00 | 65 | 1012.2 |
| 20260510113321 | 44 | 287 | 7.0 | 0.0 | 0.00 | 0.00 | 0.00 | 65 | 1012.0 |
| 20260510112821 | 44 | 193 | 1.7 | 0.0 | 0.00 | 0.00 | 0.00 | 65 | 1011.9 |
| 20260510112320 | 44 | 306 | 7.8 | 0.0 | 0.00 | 0.00 | 0.00 | 65 | 1011.9 |
| 20260510111820 | 44 | 285 | 1.7 | 0.0 | 0.00 | 0.00 | 0.00 | 65 | 1011.8 |
| 20260510111320 | 44 | 269 | 1.7 | 0.0 | 0.00 | 0.00 | 0.00 | 65 | 1011.7 |
| 20260510110820 | 44 | 298 | 1.7 | 0.0 | 0.00 | 0.00 | 0.00 | 66 | 1011.5 |
| 20260510105318 | 43 | 295 | 4.3 | 0.0 | 0.00 | 0.00 | 0.00 | 66 | 1011.3 |
| 20260510104818 | 43 | 298 | 1.7 | 0.0 | 0.00 | 0.00 | 0.00 | 66 | 1011.1 |
| 20260510104317 | 43 | 284 | 2.6 | 0.0 | 0.00 | 0.00 | 0.00 | 66 | 1011.0 |
| 20260510103817 | 43 | 257 | 0.9 | 0.0 | 0.00 | 0.00 | 0.00 | 66 | 1010.9 |
| 20260510103317 | 43 | 259 | 5.2 | 0.0 | 0.00 | 0.00 | 0.00 | 66 | 1010.8 |
| 20260510102817 | 43 | 249 | 1.7 | 0.0 | 0.00 | 0.00 | 0.00 | 66 | 1010.7 |
| 20260510102316 | 43 | 283 | 6.1 | 0.0 | 0.00 | 0.00 | 0.00 | 66 | 1010.5 |
| 20260510101816 | 43 | 303 | 3.5 | 0.0 | 0.00 | 0.00 | 0.00 | 66 | 1010.4 |
| 20260510101316 | 43 | 306 | 4.3 | 0.0 | 0.00 | 0.00 | 0.00 | 67 | 1010.3 |
| 20260510100815 | 43 | 304 | 1.7 | 0.0 | 0.00 | 0.00 | 0.00 | 67 | 1010.2 |
| 20260510100315 | 43 | 293 | 1.7 | 0.0 | 0.00 | 0.00 | 0.00 | 67 | 1010.2 |
| 20260510095815 | 43 | 338 | 2.6 | 0.0 | 0.00 | 0.00 | 0.00 | 67 | 1010.1 |
| 20260510095315 | 43 | 319 | 1.7 | 0.0 | 0.00 | 0.00 | 0.00 | 67 | 1010.0 |
| 20260510094814 | 43 | 295 | 3.5 | 0.0 | 0.00 | 0.00 | 0.00 | 67 | 1009.9 |
| 20260510094314 | 43 | 302 | 2.6 | 0.0 | 0.00 | 0.00 | 0.00 | 67 | 1009.9 |
| 20260510093814 | 43 | 317 | 1.7 | 0.0 | 0.00 | 0.00 | 0.00 | 66 | 1009.7 |
| 20260510092813 | 43 | 301 | 6.1 | 0.0 | 0.00 | 0.00 | 0.00 | 66 | 1009.6 |
| 20260510092313 | 43 | 265 | 1.7 | 0.0 | 0.00 | 0.00 | 0.00 | 66 | 1009.6 |
| 20260510091813 | 43 | 287 | 2.6 | 0.0 | 0.00 | 0.00 | 0.00 | 66 | 1009.4 |
| 20260510091312 | 44 | 277 | 0.9 | 0.0 | 0.00 | 0.00 | 0.00 | 65 | 1009.4 |
| 20260510090812 | 44 | 298 | 2.6 | 0.0 | 0.00 | 0.00 | 0.00 | 65 | 1009.4 |
| 20260510090312 | 44 | 270 | 0.9 | 0.0 | 0.00 | 0.00 | 0.00 | 65 | 1009.3 |
| 20260510085811 | 44 | 265 | 3.5 | 0.0 | 0.00 | 0.00 | 0.00 | 65 | 1009.3 |
| 20260510085311 | 44 | 271 | 0.9 | 0.0 | 0.00 | 0.00 | 0.00 | 65 | 1009.2 |
| 20260510084811 | 44 | 288 | 3.5 | 0.0 | 0.00 | 0.00 | 0.00 | 65 | 1009.1 |
| 20260510084311 | 45 | 292 | 1.7 | 0.0 | 0.00 | 0.00 | 0.00 | 64 | 1009.1 |
| 20260510083810 | 45 | 259 | 5.2 | 0.0 | 0.00 | 0.00 | 0.00 | 64 | 1009.1 |
| 20260510083310 | 45 | 323 | 1.7 | 0.0 | 0.00 | 0.00 | 0.00 | 64 | 1009.0 |
| 20260510082310 | 45 | 278 | 3.5 | 0.0 | 0.00 | 0.00 | 0.00 | 63 | 1009.2 |
| 20260510081809 | 45 | 269 | 6.1 | 0.0 | 0.00 | 0.00 | 0.00 | 63 | 1009.0 |
| 20260510081309 | 46 | 299 | 4.3 | 0.0 | 0.00 | 0.00 | 0.00 | 63 | 1009.0 |
| 20260510075808 | 47 | 293 | 3.5 | 0.0 | 0.00 | 0.00 | 0.00 | 61 | 1009.0 |
| 20260510075308 | 47 | 331 | 1.7 | 0.0 | 0.00 | 0.00 | 0.00 | 61 | 1008.8 |
| 20260510074808 | 47 | 269 | 5.2 | 0.0 | 0.00 | 0.00 | 0.00 | 60 | 1008.6 |
| 20260510074307 | 48 | 292 | 1.7 | 0.0 | 0.00 | 0.00 | 0.00 | 59 | 1008.6 |
| 20260510073307 | 48 | 316 | 2.6 | 0.0 | 0.00 | 0.00 | 0.00 | 58 | 1008.5 |
| 20260510072806 | 49 | 269 | 1.7 | 0.0 | 0.00 | 0.00 | 0.00 | 58 | 1008.5 |
| 20260510072306 | 49 | 347 | 3.5 | 0.0 | 0.00 | 0.00 | 0.00 | 58 | 1008.4 |
| 20260510071806 | 49 | 271 | 5.2 | 0.0 | 0.00 | 0.00 | 0.00 | 58 | 1008.4 |
| 20260510070805 | 49 | 273 | 3.5 | 0.0 | 0.00 | 0.00 | 0.00 | 57 | 1008.2 |
| 20260510065805 | 50 | 311 | 5.2 | 0.0 | 0.00 | 0.00 | 0.00 | 56 | 1008.2 |
| 20260510064804 | 50 | 282 | 3.5 | 0.0 | 0.00 | 0.00 | 0.00 | 57 | 1008.1 |
| 20260510064304 | 50 | 304 | 1.7 | 0.0 | 0.00 | 0.00 | 0.00 | 57 | 1008.0 |
| 20260510063803 | 50 | 218 | 4.3 | 0.0 | 0.00 | 0.00 | 0.00 | 57 | 1008.0 |
| 20260510063303 | 50 | 248 | 4.3 | 0.0 | 0.00 | 0.00 | 0.00 | 58 | 1008.0 |
| 20260510062803 | 51 | 257 | 1.7 | 0.0 | 0.00 | 0.00 | 0.00 | 58 | 1008.0 |
| 20260510062306 | 51 | 230 | 9.6 | 0.0 | 0.00 | 0.00 | 0.00 | 58 | 1008.0 |
| 20260510061302 | 51 | 262 | 0.9 | 0.0 | 0.00 | 0.00 | 0.00 | 58 | 1007.8 |
| 20260510060302 | 51 | 219 | 0.9 | 0.0 | 0.00 | 0.00 | 0.00 | 57 | 1007.7 |
| 20260510055801 | 51 | 304 | 0.9 | 0.0 | 0.00 | 0.00 | 0.00 | 57 | 1007.6 |
| 20260510055301 | 51 | 309 | 2.6 | 0.0 | 0.00 | 0.00 | 0.00 | 57 | 1007.5 |
| 20260510054801 | 51 | 292 | 2.6 | 0.0 | 0.00 | 0.00 | 0.00 | 58 | 1007.3 |
| 20260510054300 | 51 | 270 | 0.9 | 0.0 | 0.00 | 0.00 | 0.00 | 58 | 1007.4 |
| 20260510053800 | 51 | 274 | 1.7 | 0.0 | 0.00 | 0.00 | 0.00 | 57 | 1007.3 |
| 20260510053300 | 51 | 282 | 5.2 | 0.0 | 0.00 | 0.00 | 0.00 | 57 | 1007.2 |
| 20260510052259 | 51 | 286 | 7.0 | 0.0 | 0.00 | 0.00 | 0.00 | 57 | 1007.2 |
| 20260510051759 | 52 | 282 | 6.1 | 0.0 | 0.00 | 0.00 | 0.00 | 57 | 1007.2 |
| 20260510051259 | 52 | 312 | 4.3 | 0.0 | 0.00 | 0.00 | 0.00 | 58 | 1007.3 |
| 20260510045758 | 52 | 278 | 5.2 | 0.0 | 0.00 | 0.00 | 0.00 | 58 | 1006.9 |
| 20260510044757 | 52 | 304 | 2.6 | 0.0 | 0.00 | 0.00 | 0.00 | 59 | 1006.8 |
| 20260510043757 | 52 | 272 | 5.2 | 0.0 | 0.00 | 0.00 | 0.00 | 58 | 1006.7 |
| 20260510042756 | 52 | 299 | 0.9 | 0.0 | 0.00 | 0.00 | 0.00 | 58 | 1006.3 |
| 20260510040755 | 52 | 311 | 4.3 | 0.0 | 0.00 | 0.00 | 0.00 | 59 | 1006.2 |
| 20260510035755 | 52 | 318 | 1.7 | 0.0 | 0.00 | 0.20 | 0.00 | 60 | 1006.0 |
| 20260510035255 | 52 | 308 | 2.6 | 0.0 | 0.00 | 0.20 | 0.00 | 60 | 1006.0 |
| 20260510034754 | 52 | 326 | 5.2 | 0.0 | 0.00 | 0.20 | 0.00 | 60 | 1005.9 |
| 20260510034254 | 53 | 325 | 1.7 | 0.0 | 0.00 | 0.20 | 0.00 | 61 | 1005.9 |
| 20260510033253 | 53 | 315 | 4.3 | 0.0 | 0.00 | 0.20 | 0.00 | 62 | 1005.6 |
| 20260510032253 | 54 | 309 | 4.3 | 0.0 | 0.00 | 0.20 | 0.00 | 64 | 1005.5 |
| 20260510031752 | 54 | 284 | 2.6 | 0.0 | 0.00 | 0.20 | 0.00 | 65 | 1005.8 |
| 20260510030251 | 54 | 273 | 3.5 | 0.0 | 0.00 | 0.20 | 0.00 | 70 | 1005.7 |
| 20260510025751 | 54 | 323 | 2.6 | 0.0 | 0.00 | 0.20 | 0.00 | 72 | 1005.7 |
| 20260510024751 | 54 | 287 | 3.5 | 0.0 | 0.00 | 0.20 | 0.00 | 81 | 1005.6 |
| 20260510024250 | 54 | 266 | 1.7 | 0.0 | 0.00 | 0.20 | 0.00 | 82 | 1005.6 |
| 20260510023750 | 54 | 290 | 2.6 | 0.0 | 0.00 | 0.20 | 0.00 | 82 | 1005.5 |
| 20260510023250 | 54 | 236 | 1.7 | 0.0 | 0.00 | 0.20 | 0.00 | 82 | 1005.3 |
| 20260510022749 | 54 | 223 | 3.5 | 0.0 | 0.00 | 0.20 | 0.00 | 82 | 1005.2 |
| 20260510022249 | 54 | 281 | 3.5 | 0.0 | 0.00 | 0.20 | 0.00 | 82 | 1005.2 |
| 20260510021749 | 54 | 230 | 1.7 | 0.0 | 0.00 | 0.20 | 0.00 | 82 | 1005.0 |
| 20260510021249 | 54 | 215 | 3.5 | 0.0 | 0.00 | 0.20 | 0.00 | 82 | 1005.0 |
| 20260510020748 | 54 | 229 | 1.7 | 0.0 | 0.00 | 0.20 | 0.00 | 82 | 1004.8 |
| 20260510020248 | 53 | 240 | 2.6 | 0.0 | 0.00 | 0.20 | 0.00 | 82 | 1004.8 |
| 20260510015748 | 53 | 209 | 1.7 | 0.0 | 0.00 | 0.20 | 0.00 | 82 | 1004.6 |
| 20260510015247 | 53 | 236 | 1.7 | 0.0 | 0.00 | 0.20 | 0.00 | 82 | 1004.5 |
| 20260510014747 | 53 | 180 | 1.7 | 0.0 | 0.00 | 0.20 | 0.00 | 82 | 1004.3 |
| 20260510014247 | 53 | 232 | 0.9 | 0.0 | 0.00 | 0.20 | 0.00 | 82 | 1004.2 |
| 20260510013747 | 53 | 225 | 1.7 | 0.0 | 0.00 | 0.20 | 0.00 | 82 | 1004.2 |
| 20260510013246 | 53 | 219 | 1.7 | 0.0 | 0.00 | 0.20 | 0.00 | 82 | 1004.0 |
| 20260510012746 | 53 | 221 | 1.7 | 0.0 | 0.00 | 0.20 | 0.00 | 82 | 1003.9 |
| 20260510012246 | 53 | 200 | 0.0 | 0.0 | 0.00 | 0.20 | 0.00 | 81 | 1003.8 |
| 20260510011746 | 53 | 223 | 0.9 | 0.0 | 0.00 | 0.20 | 0.00 | 81 | 1003.8 |
| 20260510011245 | 53 | 191 | 1.7 | 0.0 | 0.00 | 0.20 | 0.00 | 81 | 1003.6 |
| 20260510010745 | 54 | 167 | 0.9 | 0.0 | 0.00 | 0.20 | 0.00 | 81 | 1003.6 |
| 20260510010245 | 54 | 176 | 0.9 | 0.0 | 0.00 | 0.20 | 0.00 | 80 | 1003.6 |
| 20260510005744 | 54 | 190 | 0.9 | 0.0 | 0.00 | 0.20 | 0.00 | 80 | 1003.5 |
| 20260510005244 | 54 | 205 | 0.9 | 0.0 | 0.00 | 0.20 | 0.00 | 80 | 1003.3 |
| 20260510004744 | 54 | 228 | 0.9 | 0.0 | 0.00 | 0.20 | 0.00 | 80 | 1003.1 |
| 20260510004243 | 54 | 186 | 1.7 | 0.0 | 0.00 | 0.20 | 0.00 | 80 | 1003.0 |
| 20260510003743 | 54 | 193 | 0.9 | 0.0 | 0.00 | 0.20 | 0.00 | 79 | 1003.2 |
| 20260510003243 | 54 | 207 | 0.9 | 0.0 | 0.00 | 0.20 | 0.00 | 79 | 1003.1 |
| 20260510002743 | 54 | 185 | 1.7 | 0.0 | 0.00 | 0.20 | 0.00 | 78 | 1003.0 |
| 20260510002242 | 54 | 192 | 0.9 | 0.0 | 0.00 | 0.20 | 0.00 | 78 | 1002.9 |
| 20260510001742 | 54 | 193 | 2.6 | 0.0 | 0.00 | 0.20 | 0.00 | 77 | 1002.8 |
| 20260510001242 | 54 | 180 | 1.7 | 0.0 | 0.00 | 0.20 | 0.00 | 77 | 1002.8 |
| 20260510000241 | 54 | 224 | 2.6 | 0.0 | 0.00 | 0.20 | 0.00 | 76 | 1002.7 |
| 20260509235741 | 54 | 191 | 2.6 | 0.0 | 0.00 | 0.20 | 0.00 | 76 | 1002.6 |
| 20260509235240 | 54 | 186 | 1.7 | 0.0 | 0.00 | 0.20 | 0.00 | 76 | 1002.4 |
| 20260509234740 | 54 | 196 | 4.3 | 0.0 | 0.00 | 0.20 | 0.00 | 75 | 1002.4 |
| 20260509234240 | 54 | 214 | 7.0 | 0.0 | 0.00 | 0.20 | 0.00 | 75 | 1002.2 |
| 20260509233740 | 55 | 183 | 1.7 | 0.0 | 0.00 | 0.20 | 0.00 | 76 | 1002.1 |
| 20260509233240 | 55 | 193 | 6.1 | 0.0 | 0.00 | 0.20 | 0.00 | 76 | 1002.0 |
| 20260509232739 | 55 | 184 | 2.6 | 0.0 | 0.00 | 0.20 | 0.00 | 77 | 1001.9 |
| 20260509232239 | 55 | 219 | 5.2 | 0.0 | 0.00 | 0.20 | 0.00 | 79 | 1001.8 |
| 20260509231739 | 55 | 194 | 5.2 | 0.0 | 0.00 | 0.20 | 0.00 | 81 | 1001.7 |
| 20260509231238 | 54 | 206 | 2.6 | 0.0 | 0.00 | 0.20 | 0.00 | 83 | 1001.6 |
| 20260509230738 | 54 | 233 | 4.3 | 0.0 | 0.00 | 0.20 | 0.00 | 84 | 1001.7 |
| 20260509230238 | 54 | 177 | 1.7 | 0.0 | 0.00 | 0.20 | 0.00 | 85 | 1001.6 |
| 20260509225737 | 53 | 174 | 2.6 | 0.0 | 0.00 | 0.20 | 0.00 | 85 | 1001.6 |
| 20260509225237 | 53 | 202 | 2.6 | 0.0 | 0.00 | 0.20 | 0.00 | 85 | 1001.6 |
| 20260509224737 | 53 | 192 | 5.2 | 0.0 | 0.00 | 0.20 | 0.00 | 85 | 1001.7 |
| 20260509223736 | 53 | 198 | 6.1 | 0.0 | 0.04 | 0.20 | 0.00 | 85 | 1001.8 |
| 20260509222736 | 53 | 189 | 0.9 | 0.0 | 0.12 | 0.20 | 0.00 | 85 | 1001.8 |
| 20260509222236 | 53 | 134 | 6.1 | 0.0 | 0.12 | 0.19 | 0.00 | 85 | 1002.1 |
| 20260509221735 | 53 | 144 | 3.5 | 0.0 | 0.35 | 0.18 | 0.00 | 85 | 1001.9 |
| 20260509221235 | 52 | 173 | 5.2 | 0.0 | 0.55 | 0.12 | 0.00 | 83 | 1002.7 |
| 20260509220735 | 52 | 174 | 0.9 | 0.0 | 0.54 | 0.10 | 0.00 | 82 | 1002.7 |
| 20260509220234 | 51 | 173 | 0.9 | 0.0 | 0.24 | 0.08 | 0.00 | 81 | 1002.5 |
| 20260509215734 | 51 | 145 | 1.7 | 0.0 | 0.00 | 0.06 | 0.00 | 81 | 1002.2 |
| 20260509215234 | 51 | 71 | 0.9 | 0.0 | 0.00 | 0.06 | 0.00 | 80 | 1002.3 |
| 20260509214734 | 51 | 71 | 0.0 | 0.0 | 0.00 | 0.06 | 0.00 | 80 | 1002.2 |
| 20260509214234 | 51 | 57 | 0.0 | 0.0 | 0.00 | 0.06 | 0.00 | 79 | 1002.2 |
| 20260509213733 | 51 | 27 | 0.0 | 0.0 | 0.00 | 0.06 | 0.00 | 79 | 1002.4 |
| 20260509212732 | 50 | 38 | 0.0 | 0.0 | 0.00 | 0.06 | 0.00 | 79 | 1002.5 |
| 20260509212232 | 50 | 52 | 0.9 | 0.0 | 0.00 | 0.06 | 0.00 | 79 | 1002.5 |
| 20260509211732 | 50 | 130 | 0.9 | 0.0 | 0.00 | 0.06 | 0.00 | 79 | 1002.6 |
| 20260509211232 | 50 | 61 | 0.0 | 0.0 | 0.00 | 0.06 | 0.00 | 79 | 1002.5 |
| 20260509210731 | 50 | 113 | 1.7 | 0.0 | 0.00 | 0.06 | 0.00 | 79 | 1002.3 |
| 20260509210231 | 50 | 119 | 2.6 | 0.0 | 0.00 | 0.06 | 0.00 | 79 | 1002.3 |
| 20260509205731 | 50 | 147 | 3.5 | 0.0 | 0.00 | 0.06 | 0.00 | 79 | 1002.2 |
| 20260509205230 | 50 | 120 | 1.7 | 0.0 | 0.00 | 0.06 | 0.00 | 79 | 1002.1 |
| 20260509204730 | 50 | 105 | 0.9 | 0.0 | 0.00 | 0.06 | 0.00 | 79 | 1002.2 |
| 20260509204230 | 50 | 142 | 0.9 | 0.0 | 0.04 | 0.06 | 0.00 | 79 | 1002.5 |
| 20260509203730 | 50 | 135 | 0.9 | 0.0 | 0.05 | 0.06 | 0.00 | 80 | 1002.6 |
| 20260509203229 | 50 | 90 | 0.9 | 0.0 | 0.09 | 0.06 | 0.00 | 80 | 1002.6 |
| 20260509202729 | 49 | 111 | 1.7 | 0.0 | 0.42 | 0.06 | 0.00 | 80 | 1002.5 |
| 20260509202229 | 49 | 143 | 2.6 | 0.0 | 0.00 | 0.00 | 0.00 | 80 | 1002.7 |
| 20260509201728 | 49 | 134 | 2.6 | 0.0 | 0.00 | 0.00 | 0.00 | 80 | 1002.9 |
| 20260509201228 | 49 | 123 | 0.9 | 0.0 | 0.00 | 0.00 | 0.00 | 79 | 1003.0 |
| 20260509200728 | 49 | 135 | 1.7 | 0.0 | 0.00 | 0.00 | 0.00 | 79 | 1002.9 |
| 20260509200228 | 49 | 87 | 0.0 | 0.0 | 0.00 | 0.00 | 0.00 | 79 | 1002.8 |
| 20260509195727 | 49 | 120 | 1.7 | 0.0 | 0.00 | 0.00 | 0.00 | 79 | 1003.0 |
| 20260509195227 | 49 | 85 | 0.0 | 0.0 | 0.00 | 0.00 | 0.00 | 79 | 1003.1 |
| 20260509194727 | 49 | 64 | 0.9 | 0.0 | 0.00 | 0.00 | 0.00 | 78 | 1003.2 |
| 20260509194226 | 50 | 132 | 2.6 | 0.0 | 0.00 | 0.00 | 0.00 | 78 | 1003.2 |
| 20260509193726 | 50 | 136 | 3.5 | 0.0 | 0.00 | 0.00 | 0.00 | 79 | 1003.2 |
| 20260509193226 | 50 | 119 | 2.6 | 0.0 | 0.00 | 0.00 | 0.00 | 79 | 1003.3 |
| 20260509192726 | 49 | 153 | 0.0 | 0.0 | 0.00 | 0.00 | 0.00 | 78 | 1003.4 |
| 20260509192225 | 49 | 126 | 1.7 | 0.0 | 0.00 | 0.00 | 0.00 | 78 | 1003.5 |
| 20260509191725 | 49 | 158 | 0.9 | 0.0 | 0.00 | 0.00 | 0.00 | 77 | 1003.6 |
| 20260509191225 | 50 | 136 | 7.0 | 0.0 | 0.00 | 0.00 | 0.00 | 77 | 1003.6 |
| 20260509190724 | 50 | 104 | 5.2 | 0.0 | 0.00 | 0.00 | 0.00 | 77 | 1003.6 |
| 20260509190224 | 50 | 147 | 3.5 | 0.0 | 0.00 | 0.00 | 0.00 | 76 | 1003.5 |
| 20260509185724 | 51 | 134 | 3.5 | 0.0 | 0.00 | 0.00 | 0.00 | 75 | 1003.5 |
| 20260509185224 | 52 | 142 | 5.2 | 0.0 | 0.00 | 0.00 | 0.00 | 75 | 1003.6 |
| 20260509184223 | 52 | 64 | 0.9 | 0.0 | 0.00 | 0.00 | 0.00 | 74 | 1003.7 |
| 20260509182722 | 54 | 119 | 2.6 | 0.0 | 0.00 | 0.00 | 0.00 | 72 | 1003.7 |
| 20260509182222 | 55 | 139 | 7.0 | 0.0 | 0.00 | 0.00 | 0.00 | 73 | 1003.6 |
| 20260509181722 | 55 | 90 | 5.2 | 0.0 | 0.00 | 0.00 | 0.00 | 72 | 1003.8 |
| 20260509175721 | 55 | 103 | 2.6 | 0.0 | 0.00 | 0.00 | 0.00 | 74 | 1004.0 |
| 20260509175220 | 55 | 132 | 2.6 | 0.0 | 0.00 | 0.00 | 0.00 | 73 | 1004.1 |
| 20260509174220 | 56 | 142 | 2.6 | 0.0 | 0.00 | 0.00 | 0.00 | 71 | 1004.3 |
| 20260509173219 | 56 | 102 | 0.9 | 0.0 | 0.00 | 0.00 | 0.00 | 71 | 1004.4 |
| 20260509172719 | 56 | 88 | 2.6 | 0.0 | 0.00 | 0.00 | 0.00 | 71 | 1004.6 |
| 20260509171218 | 55 | 94 | 1.7 | 0.0 | 0.00 | 0.00 | 0.00 | 71 | 1004.8 |
| 20260509165717 | 55 | 92 | 2.6 | 0.0 | 0.00 | 0.00 | 0.00 | 72 | 1004.8 |
| 20260509163716 | 54 | 52 | 1.7 | 0.0 | 0.00 | 0.00 | 0.00 | 74 | 1004.9 |
| 20260509161215 | 53 | 36 | 0.9 | 0.0 | 0.00 | 0.00 | 0.00 | 72 | 1005.4 |
| 20260509155214 | 52 | 123 | 2.6 | 0.0 | 0.00 | 0.00 | 0.00 | 76 | 1005.6 |
| 20260509154713 | 51 | 136 | 0.9 | 0.0 | 0.00 | 0.00 | 0.00 | 76 | 1005.7 |
| 20260509154213 | 51 | 101 | 1.7 | 0.0 | 0.00 | 0.00 | 0.00 | 76 | 1005.7 |
| 20260509153713 | 50 | 57 | 0.0 | 0.0 | 0.00 | 0.00 | 0.00 | 75 | 1005.8 |
| 20260509153212 | 50 | 355 | 0.0 | 0.0 | 0.00 | 0.00 | 0.00 | 74 | 1005.8 |
| 20260509152212 | 50 | 103 | 2.6 | 0.0 | 0.00 | 0.00 | 0.00 | 74 | 1005.8 |
| 20260509150211 | 50 | 126 | 0.9 | 0.0 | 0.00 | 0.00 | 0.00 | 74 | 1005.8 |
| 20260509145710 | 50 | 51 | 0.0 | 0.0 | 0.00 | 0.00 | 0.00 | 74 | 1005.9 |
| 20260509144710 | 49 | 88 | 1.7 | 0.0 | 0.00 | 0.00 | 0.00 | 74 | 1006.1 |
| 20260509143709 | 50 | 93 | 1.7 | 0.0 | 0.00 | 0.00 | 0.00 | 73 | 1006.2 |
| 20260509143209 | 50 | 86 | 1.7 | 0.0 | 0.00 | 0.00 | 0.00 | 72 | 1006.2 |